Pellston, MI

8:39 PM EDT on October 17, 2017 (GMT -0400)
Pellston Regional Airport Of Emmet County

Weather History for KPLN - November, 2012

Change the Weather History Date:

Tuesday, November 20, 2012

  Actual Average Record
Temperature  
Mean Temperature 46 °F -  
Max Temperature 52 °F 40 °F 65 °F (1953)
Min Temperature 39 °F 27 °F 8 °F (1951)
Degree Days  
Heating Degree Days 20    
Moisture  
Dew Point 39 °F    
Average Humidity 82    
Maximum Humidity 96    
Minimum Humidity 69    
Precipitation  
Precipitation 0.00 in - - ()
Sea Level Pressure  
Sea Level Pressure 30.13 in    
Wind  
Wind Speed 1 mph (NW)    
Max Wind Speed 7 mph    
Max Gust Speed -    
Visibility 9 miles    
Events      
Averages and records for this station are not official NWS values.
T = Trace of Precipitation, MM = Missing Value Source: NWS Daily Summary

Daily Weather History Graph

Daily Weather History Graph

Search for Another Location

Airport or City:

Trip Planner

Search our weather history database for the weather conditions in past years. The results will help you decide how hot, cold, wet, or windy it might be!

Date:

Astronomy

Nov. 20, 2012 Rise Set
Actual Time 7:45 AM EST 5:03 PM EST
Civil Twilight 7:13 AM EST 5:36 PM EST
Nautical Twilight 6:36 AM EST 6:12 PM EST
Astronomical Twilight 6:01 AM EST 6:47 PM EST
Moon 1:09 PM EST (11/20) No Moon Set
Length of Visible Light 10h 23m
Length of Day
9h 17m
Waxing Crescent, 51% of the Moon is Illuminated
Nov 20
Waxing Crescent
Nov 28
Full
Dec 6
Last Quarter
Dec 13
New
Dec 20
First Quarter

Hourly Weather History & Observations

Time (EST) Temp. Windchill Dew Point Humidity Pressure Visibility Wind Dir Wind Speed Gust Speed Precip Events Conditions
12:54 AM 41.0 °F - 34.0 °F 76% 30.14 in 10.0 mi Calm Calm - N/A   Overcast
1:54 AM 41.0 °F - 34.0 °F 76% 30.13 in 10.0 mi Calm Calm - N/A   Overcast
2:54 AM 42.1 °F - 35.1 °F 76% 30.13 in 10.0 mi Calm Calm - N/A   Overcast
3:54 AM 41.0 °F - 35.1 °F 79% 30.12 in 10.0 mi Calm Calm - N/A   Overcast
4:54 AM 41.0 °F - 36.0 °F 82% 30.11 in 10.0 mi Calm Calm - 0.00 in   Overcast
5:54 AM 41.0 °F - 36.0 °F 82% 30.11 in 10.0 mi Calm Calm - N/A   Overcast
6:54 AM 41.0 °F - 36.0 °F 82% 30.12 in 10.0 mi Calm Calm - 0.00 in   Overcast
7:54 AM 41.0 °F - 37.0 °F 86% 30.12 in 10.0 mi Calm Calm - N/A   Overcast
8:54 AM 42.1 °F - 39.0 °F 89% 30.13 in 10.0 mi Calm Calm - N/A   Overcast
9:54 AM 45.0 °F - 39.9 °F 82% 30.12 in 9.0 mi Calm Calm - N/A   Overcast
10:54 AM 46.9 °F - 39.9 °F 77% 30.12 in 9.0 mi SSE 4.6 mph - N/A   Overcast
11:54 AM 48.9 °F - 41.0 °F 74% 30.12 in 9.0 mi Calm Calm - N/A   Overcast
12:54 PM 51.1 °F - 42.1 °F 71% 30.10 in 10.0 mi Calm Calm - N/A   Overcast
1:54 PM 52.0 °F - 42.1 °F 69% 30.11 in 10.0 mi Calm Calm - N/A   Overcast
2:54 PM 51.1 °F - 42.1 °F 71% 30.11 in 10.0 mi NNW 6.9 mph - N/A   Overcast
3:10 PM 51.8 °F - 42.8 °F 71% 30.10 in 9.0 mi NW 6.9 mph - N/A   Overcast
3:28 PM 51.8 °F - 42.8 °F 71% 30.09 in 9.0 mi WNW 3.5 mph - N/A   Overcast
3:54 PM 51.1 °F - 43.0 °F 74% 30.11 in 10.0 mi Calm Calm - N/A   Overcast
4:54 PM 48.9 °F - 43.0 °F 80% 30.13 in 9.0 mi Calm Calm - N/A   Overcast
5:49 PM 46.4 °F - 41.0 °F 81% 30.12 in 10.0 mi Calm Calm - N/A   Overcast
5:54 PM 46.0 °F - 41.0 °F 83% 30.14 in 10.0 mi Calm Calm - N/A   Overcast
6:26 PM 46.4 °F - 42.8 °F 87% 30.12 in 9.0 mi Calm Calm - N/A   Overcast
6:54 PM 46.0 °F - 41.0 °F 83% 30.14 in 9.0 mi Calm Calm - N/A   Overcast
7:54 PM 45.0 °F 43.5 °F 42.1 °F 90% 30.16 in 7.0 mi NW 3.5 mph - N/A   Overcast
8:36 PM 39.2 °F 37.0 °F 37.4 °F 93% 30.14 in 5.0 mi SE 3.5 mph - N/A   Mostly Cloudy
8:54 PM 39.9 °F - 37.9 °F 93% 30.17 in 6.0 mi Calm Calm - N/A   Overcast
9:05 PM 42.8 °F - 39.2 °F 87% 30.15 in 6.0 mi Calm Calm - N/A   Overcast
9:54 PM 39.0 °F - 37.9 °F 96% 30.17 in 4.0 mi Calm Calm - N/A   Overcast
10:24 PM 41.0 °F - 39.2 °F 93% 30.15 in 6.0 mi Calm Calm - N/A   Overcast
10:54 PM 41.0 °F - 39.0 °F 93% 30.16 in 6.0 mi Calm Calm - N/A   Overcast
11:10 PM 41.0 °F - 39.2 °F 93% 30.15 in 6.0 mi Calm Calm - N/A   Overcast
11:54 PM 42.1 °F - 39.9 °F 92% 30.16 in 6.0 mi Calm Calm - N/A   Overcast